Simultaneous Nadir Overpasses (SNOs) Predictions

Prediction of SNOs between GOES-15 and TERRA Satellite Orbit:

Table of predicted SNOs for the next 14.0 days since TLE Epoch: 3/22/2013
Index Date Time (GOES-15) GOES-15 Lat,Lon TERRA Lat,Lon Distance(km) Time Diff (sec)
1 03/23/2013 19:15:45 0.01,-135.25 -0.82,-131.22 457.69 80
2 03/24/2013 07:34:30 -0.01,-135.26 -0.25,-136.42 130.87 80
3 03/26/2013 07:24:59 -0.01,-135.22 0.38,-133.46 200.47 80
4 03/26/2013 19:43:34 0.01,-135.18 0.76,-138.61 390.43 80
5 03/28/2013 19:31:23 0.01,-135.13 0.12,-135.65 59.99 80
6 03/30/2013 19:21:52 0.01,-135.06 -0.52,-132.70 269.53 80
7 03/31/2013 07:40:36 -0.01,-135.08 -0.60,-137.89 319.51 80
8 04/02/2013 07:31:04 -0.01,-135.01 -0.00,-134.92 9.15 80
9 04/04/2013 07:18:52
